TimeEST,TemperatureF,Dew PointF,Humidity,Sea Level PressureIn,VisibilityMPH,Wind Direction,Wind SpeedMPH,Gust SpeedMPH,PrecipitationIn,Events,Conditions,WindDirDegrees,DateUTC
12:53 AM,51.1,37.0,59,30.19,10.0,NW,9.2,19.6,N/A,,Clear,320,2012-12-22 05:53:00
1:53 AM,51.1,37.9,61,30.19,10.0,Variable,6.9,-,N/A,,Clear,0,2012-12-22 06:53:00
2:53 AM,50.0,39.0,66,30.19,10.0,NW,5.8,-,N/A,,Clear,320,2012-12-22 07:53:00
3:53 AM,50.0,37.9,63,30.20,10.0,NW,6.9,-,N/A,,Clear,320,2012-12-22 08:53:00
4:53 AM,50.0,35.1,57,30.19,10.0,NNW,8.1,16.1,N/A,,Clear,340,2012-12-22 09:53:00
5:53 AM,48.9,33.1,54,30.21,10.0,NNW,10.4,16.1,N/A,,Clear,340,2012-12-22 10:53:00
6:53 AM,48.0,32.0,54,30.22,10.0,NNW,10.4,19.6,N/A,,Mostly Cloudy,330,2012-12-22 11:53:00
7:53 AM,48.9,30.0,48,30.25,10.0,NNW,10.4,20.7,N/A,,Mostly Cloudy,330,2012-12-22 12:53:00
8:53 AM,51.1,30.0,44,30.27,10.0,NNW,9.2,20.7,N/A,,Partly Cloudy,330,2012-12-22 13:53:00
9:53 AM,55.0,30.0,38,30.28,10.0,NW,10.4,16.1,N/A,,Partly Cloudy,310,2012-12-22 14:53:00
10:53 AM,57.9,27.0,31,30.26,10.0,NNW,9.2,-,N/A,,Partly Cloudy,330,2012-12-22 15:53:00
11:53 AM,60.1,30.0,32,30.25,10.0,NNW,11.5,18.4,N/A,,Scattered Clouds,330,2012-12-22 16:53:00
12:53 PM,63.0,28.0,27,30.22,10.0,NNW,10.4,-,N/A,,Partly Cloudy,330,2012-12-22 17:53:00
1:53 PM,64.0,25.0,23,30.19,10.0,NW,8.1,-,N/A,,Partly Cloudy,320,2012-12-22 18:53:00
2:53 PM,64.9,25.0,22,30.19,10.0,NNW,8.1,16.1,N/A,,Partly Cloudy,330,2012-12-22 19:53:00
3:53 PM,64.9,24.1,21,30.20,10.0,NNW,9.2,16.1,N/A,,Clear,340,2012-12-22 20:53:00
4:53 PM,63.0,27.0,26,30.20,10.0,NNW,6.9,-,N/A,,Clear,330,2012-12-22 21:53:00
5:53 PM,60.1,27.0,28,30.22,10.0,NNW,4.6,-,N/A,,Clear,330,2012-12-22 22:53:00
6:53 PM,57.9,28.9,33,30.23,10.0,NNW,4.6,-,N/A,,Clear,330,2012-12-22 23:53:00
7:53 PM,57.0,30.0,36,30.24,10.0,Calm,Calm,-,N/A,,Clear,0,2012-12-23 00:53:00
8:53 PM,55.9,35.1,45,30.25,10.0,Calm,Calm,-,N/A,,Clear,0,2012-12-23 01:53:00
9:53 PM,55.0,36.0,49,30.25,10.0,NW,3.5,-,N/A,,Clear,320,2012-12-23 02:53:00
10:53 PM,55.0,34.0,45,30.25,10.0,NNW,3.5,-,N/A,,Clear,330,2012-12-23 03:53:00
11:53 PM,54.0,32.0,43,30.23,10.0,NNW,3.5,-,N/A,,Clear,340,2012-12-23 04:53:00